Back to catalog

FENGYUN 1C DEB

AliveSSO
NORAD 30315·DEBRIS·🇨🇳 China

Launched May 10, 1999 from Taiyuan Satellite Launch Center

Loading…

Next Passes (next 24 hours)

TLE

FreshSource: Space-Track

Epoch: Sep 14, 2026, 11:31 UTC

1 30315U 99025AAC 26257.48036981  .00000353  00000-0  18706-3 0  9994
2 30315  98.6005 263.9505 0033956 283.2016 231.9813 14.19394319 16187

Track FENGYUN 1C DEB in real time with AllMySat

Download on the App Store